AFR89IM LEPA-EDDH

Flight info

Callsign AFR89IM
Flight time N/A
Altitude 38000
Route MEROS N853 LUMAS DCT MAXIR DCT LUSOL DCT BODRU DCT OKTET DCT IRMAR DCT KINES DCT VANAS DCT MOBLO DCT UBIMA DCT SOSAL DCT KORED DCT BERSU N871 DITON/N0481F390 DCT LOKTA DCT TEDGO DCT HAREM DCT LOHRE DCT ELNAT/N0476F380 P605 NOLGO NOLGO6A
Aircraft B77W/H-SDE1E2E3FGHIJ2J3J4J5M1RWXY/LB1D1

Departure

Time 2026-05-06 15:28
Airport Palma de Mallorca Airport (LEPA)

Arrival

Time N/A
Airport Hamburg Helmut Schmidt Airport (EDDH)
Time Latitude Longitude Altitude Speed Heading
2026-05-06 15:03 39.54701 2.73406 43 ft 0 kts 240°
2026-05-06 15:07 39.54702 2.73406 43 ft 0 kts 240°
2026-05-06 15:17 39.54704 2.73410 43 ft 2 kts 237°
2026-05-06 15:18 39.54712 2.73428 41 ft 2 kts 234°
2026-05-06 15:18 39.54722 2.73446 40 ft 2 kts 227°
2026-05-06 15:18 39.54735 2.73459 40 ft 2 kts 187°
2026-05-06 15:18 39.54748 2.73455 40 ft 1 kts 144°
2026-05-06 15:19 39.54749 2.73454 40 ft 0 kts 144°
2026-05-06 15:23 39.54736 2.73466 43 ft 12 kts 145°
2026-05-06 15:23 39.54662 2.73526 43 ft 0 kts 149°
2026-05-06 15:24 39.54649 2.73536 43 ft 5 kts 150°
2026-05-06 15:24 39.54614 2.73534 43 ft 5 kts 201°
2026-05-06 15:24 39.54584 2.73503 43 ft 5 kts 228°
2026-05-06 15:25 39.54535 2.73411 43 ft 24 kts 238°
2026-05-06 15:25 39.54472 2.73275 43 ft 16 kts 239°
2026-05-06 15:25 39.54434 2.73222 43 ft 3 kts 195°
2026-05-06 15:25 39.54410 2.73223 43 ft 3 kts 177°
2026-05-06 15:26 39.54386 2.73218 43 ft 4 kts 195°
2026-05-06 15:26 39.54327 2.73157 43 ft 18 kts 237°
2026-05-06 15:26 39.54262 2.73016 43 ft 20 kts 239°
2026-05-06 15:26 39.54191 2.72931 43 ft 9 kts 170°
2026-05-06 15:27 39.54159 2.72976 43 ft 7 kts 110°
2026-05-06 15:27 39.54154 2.73016 43 ft 7 kts 95°
2026-05-06 15:27 39.54152 2.73158 43 ft 28 kts 88°
2026-05-06 15:27 39.54345 2.73647 43 ft 102 kts 59°
2026-05-06 15:28 39.54690 2.74366 43 ft 181 kts 58°
2026-05-06 15:28 39.55783 2.76632 1116 ft 227 kts 57°
2026-05-06 15:28 39.56662 2.78337 2789 ft 228 kts 56°
2026-05-06 15:28 39.57537 2.80104 3592 ft 230 kts 58°
2026-05-06 15:29 39.58113 2.81303 3937 ft 234 kts 58°
2026-05-06 15:29 39.59267 2.83718 3966 ft 242 kts 59°
2026-05-06 15:29 39.59829 2.84987 4161 ft 248 kts 60°
2026-05-06 15:29 39.60700 2.86989 4936 ft 262 kts 60°
2026-05-06 15:30 39.61635 2.89066 5874 ft 271 kts 58°
2026-05-06 15:30 39.62604 2.91200 6849 ft 279 kts 59°
2026-05-06 15:30 39.63587 2.93404 7825 ft 286 kts 59°
2026-05-06 15:30 39.64593 2.95664 8825 ft 292 kts 59°
2026-05-06 15:31 39.65621 2.97973 9844 ft 298 kts 59°
2026-05-06 15:31 39.66675 3.00338 10638 ft 311 kts 59°
2026-05-06 15:31 39.67810 3.02880 10955 ft 341 kts 59°
2026-05-06 15:32 39.70351 3.08685 11909 ft 389 kts 60°
2026-05-06 15:32 39.71640 3.11765 12879 ft 399 kts 61°
2026-05-06 15:32 39.72954 3.14977 13927 ft 407 kts 62°
2026-05-06 15:32 39.74287 3.18262 14889 ft 414 kts 62°
2026-05-06 15:33 39.75644 3.21603 15793 ft 421 kts 62°
2026-05-06 15:33 39.77023 3.24994 16658 ft 429 kts 61°
2026-05-06 15:33 39.78609 3.28299 17456 ft 435 kts 51°
2026-05-06 15:33 39.80567 3.31343 18256 ft 443 kts 47°
2026-05-06 15:34 39.82643 3.34337 19008 ft 449 kts 46°
2026-05-06 15:34 39.84759 3.37350 19750 ft 454 kts 46°
2026-05-06 15:34 39.86893 3.40417 19971 ft 460 kts 46°
2026-05-06 15:34 39.88994 3.43489 19934 ft 459 kts 47°
2026-05-06 15:35 39.91094 3.46608 19939 ft 457 kts 47°
2026-05-06 15:35 39.93176 3.49733 19960 ft 457 kts 47°
2026-05-06 15:35 39.95258 3.52876 19938 ft 458 kts 48°
2026-05-06 15:35 39.97337 3.56022 19942 ft 458 kts 48°
2026-05-06 15:36 39.99419 3.59177 20079 ft 461 kts 48°
2026-05-06 15:36 40.01524 3.62368 20829 ft 467 kts 48°
2026-05-06 15:36 40.03652 3.65595 21651 ft 471 kts 48°
2026-05-06 15:36 40.05803 3.68859 22426 ft 477 kts 48°
2026-05-06 15:37 40.07979 3.72163 23120 ft 484 kts 48°
2026-05-06 15:37 40.10186 3.75519 23751 ft 490 kts 48°
2026-05-06 15:37 40.12392 3.78877 24342 ft 495 kts 48°
2026-05-06 15:37 40.14673 3.82351 24960 ft 500 kts 48°
2026-05-06 15:38 40.16913 3.85770 25569 ft 504 kts 48°
2026-05-06 15:38 40.19205 3.89270 26149 ft 509 kts 48°
2026-05-06 15:38 40.21514 3.92801 26705 ft 514 kts 48°
2026-05-06 15:38 40.23846 3.96371 27234 ft 518 kts 48°
2026-05-06 15:39 40.26202 3.99981 27782 ft 523 kts 48°
2026-05-06 15:39 40.28571 4.03616 28291 ft 527 kts 48°
2026-05-06 15:39 40.30959 4.07284 28801 ft 531 kts 48°
2026-05-06 15:39 40.33365 4.10985 29278 ft 535 kts 48°
2026-05-06 15:40 40.35788 4.14717 29730 ft 539 kts 48°
2026-05-06 15:40 40.38225 4.18475 30138 ft 543 kts 48°
2026-05-06 15:40 40.40635 4.22197 30563 ft 543 kts 48°
2026-05-06 15:40 40.43082 4.25980 31094 ft 542 kts 48°
2026-05-06 15:41 40.45518 4.29749 31635 ft 541 kts 48°
2026-05-06 15:41 40.48015 4.33405 32053 ft 537 kts 40°
2026-05-06 15:41 40.51030 4.36272 32340 ft 533 kts 24°
2026-05-06 15:41 40.54434 4.38049 32782 ft 522 kts
2026-05-06 15:42 40.57977 4.38828 33211 ft 514 kts
2026-05-06 15:42 40.61523 4.39533 33609 ft 516 kts
2026-05-06 15:42 40.65064 4.40291 34047 ft 516 kts
2026-05-06 15:42 40.68550 4.41087 34473 ft 515 kts
2026-05-06 15:43 40.72075 4.41922 34904 ft 514 kts
2026-05-06 15:43 40.75588 4.42767 35294 ft 513 kts
2026-05-06 15:43 40.79104 4.43613 35659 ft 513 kts
2026-05-06 15:43 40.82615 4.44455 36021 ft 513 kts
2026-05-06 15:44 40.86125 4.45294 36395 ft 512 kts
2026-05-06 15:44 40.89626 4.46130 36782 ft 511 kts
2026-05-06 15:44 40.93130 4.46977 37128 ft 511 kts